H1 CPF 2 NER 2023 12 6 9 340 01 glonass134 H2 1407501 9134 40315 2023 12 6 0 0 0 2023 12 9 23 45 0 900 1 1 0 0 0 1 H9 10 0 60284 0.00000 0 630452.054 -13168573.479 21837337.383 10 0 60284 900.00000 0 2786080.722 -14658033.309 20682061.076 10 0 60284 1800.00000 0 4700709.485 -16192826.471 19124847.202 10 0 60284 2700.00000 0 6343052.464 -17715720.027 17195682.552 10 0 60284 3600.00000 0 7693638.789 -19166288.557 14931845.253 10 0 60284 4500.00000 0 8745378.764 -20483431.475 12377196.926 10 0 60284 5400.00000 0 9503608.823 -21607945.443 9581340.190 10 0 60284 6300.00000 0 9985612.509 -22485042.920 6598656.913 10 0 60284 7200.00000 0 10219637.180 -23066709.220 3487245.686 10 0 60284 8100.00000 0 10243447.969 -23313796.608 307779.622 10 0 60284 9000.00000 0 10102480.790 -23197764.682 -2877692.158 10 0 60284 9900.00000 0 9847673.906 -22701991.139 -6006974.275 10 0 60284 10800.00000 0 9533071.809 -21822595.413 -9018960.038 10 0 60284 11700.00000 0 9213305.336 -20568738.779 -11854845.228 10 0 60284 12600.00000 0 8941057.349 -18962387.252 -14459294.796 10 0 60284 13500.00000 0 8764623.917 -17037547.016 -16781537.749 10 0 60284 14400.00000 0 8725676.472 -14839004.941 -18776367.375 10 0 60284 15300.00000 0 8857321.388 -12420628.111 -20405026.322 10 0 60284 16200.00000 0 9182540.078 -9843294.967 -21635959.000 10 0 60284 17100.00000 0 9713075.853 -7172546.096 -22445416.959 10 0 60284 18000.00000 0 10448814.199 -4476054.111 -22817906.371 10 0 60284 18900.00000 0 11377681.713 -1821019.027 -22746470.219 10 0 60284 19800.00000 0 12476066.682 728402.087 -22232801.405 10 0 60284 20700.00000 0 13709742.169 3113524.616 -21287186.331 10 0 60284 21600.00000 0 15035251.339 5283325.191 -19928281.882 10 0 60284 22500.00000 0 16401695.635 7196300.703 -18182731.779 10 0 60284 23400.00000 0 17752849.828 8821922.639 -16084631.203 10 0 60284 24300.00000 0 19029514.742 10141629.209 -13674851.196 10 0 60284 25200.00000 0 20172009.021 11149317.081 -11000236.721 10 0 60284 26100.00000 0 21122695.896 11851315.363 -8112694.381 10 0 60284 27000.00000 0 21828439.902 12265845.844 -5068187.565 10 0 60284 27900.00000 0 22242891.710 12421994.612 -1925658.213 10 0 60284 28800.00000 0 22328506.574 12358239.995 1254104.400 10 0 60284 29700.00000 0 22058213.107 12120599.840 4409626.813 10 0 60284 30600.00000 0 21416663.499 11760476.461 7479924.992 10 0 60284 31500.00000 0 20401013.603 11332289.698 10405666.885 10 0 60284 32400.00000 0 19021200.425 10890997.011 13130302.817 10 0 60284 33300.00000 0 17299705.088 10489603.855 15601143.273 10 0 60284 34200.00000 0 15270810.210 10176767.974 17770364.599 10 0 60284 35100.00000 0 12979381.098 9994597.259 19595924.469 10 0 60284 36000.00000 0 10479219.472 9976732.989 21042370.484 10 0 60284 36900.00000 0 7831055.815 10146798.750 22081526.984 10 0 60284 37800.00000 0 5100261.207 10517280.505 22693047.140 10 0 60284 38700.00000 0 2354371.083 11088885.867 22864819.488 10 0 60284 39600.00000 0 -339478.562 11850411.152 22593220.361 10 0 60284 40500.00000 0 -2917098.032 12779123.994 21883206.156 10 0 60284 41400.00000 0 -5319669.442 13841648.026 20748242.007 10 0 60284 42300.00000 0 -7495950.753 14995315.155 19210066.295 10 0 60284 43200.00000 0 -9404166.722 16189931.109 17298293.371 10 0 60284 44100.00000 0 -11013507.482 17369882.114 15049860.060 10 0 60284 45000.00000 0 -12305171.254 18476495.415 12508324.761 10 0 60284 45900.00000 0 -13272906.497 19450554.826 9723031.175 10 0 60284 46800.00000 0 -13923029.701 20234864.914 6748151.960 10 0 60284 47700.00000 0 -14273917.286 20776754.437 3641630.607 10 0 60284 48600.00000 0 -14354992.679 21030411.450 464042.547 10 0 60284 49500.00000 0 -14205251.615 20958949.048 -2722601.257 10 0 60284 50400.00000 0 -13871388.950 20536111.869 -5856083.194 10 0 60284 51300.00000 0 -13405607.802 19747548.764 -8875214.359 10 0 60284 52200.00000 0 -12863205.917 18591595.769 -11721050.013 10 0 60284 53100.00000 0 -12300043.875 17079534.768 -14338059.165 10 0 60284 54000.00000 0 -11770004.855 15235316.100 -16675223.498 10 0 60284 54900.00000 0 -11322555.757 13094756.600 -18687042.686 10 0 60284 55800.00000 0 -11000514.743 10704247.300 -20334425.495 10 0 60284 56700.00000 0 -10838120.775 8119025.929 -21585448.969 10 0 60284 57600.00000 0 -10859487.205 5401087.740 -22415971.252 10 0 60284 58500.00000 0 -11077504.446 2616823.221 -22810086.930 10 0 60284 59400.00000 0 -11493237.092 -165517.780 -22760417.392 10 0 60284 60300.00000 0 -12095839.486 -2878429.366 -22268232.212 10 0 60284 61200.00000 0 -12862991.572 -5457712.040 -21343400.961 10 0 60284 62100.00000 0 -13761834.873 -7844888.514 -20004178.231 10 0 60284 63000.00000 0 -14750367.560 -9989373.953 -18276827.684 10 0 60284 63900.00000 0 -15779238.554 -11850312.498 -16195093.887 10 0 60284 64800.00000 0 -16793864.283 -13398006.311 -13799533.320 10 0 60284 65700.00000 0 -17736778.707 -14614880.605 -11136718.326 10 0 60284 66600.00000 0 -18550117.890 -15495947.483 -8258329.877 10 0 60284 67500.00000 0 -19178135.260 -16048752.185 -5220156.857 10 0 60284 68400.00000 0 -19569642.771 -16292806.660 -2081020.995 10 0 60284 69300.00000 0 -19680276.573 -16258536.290 1098352.242 10 0 60284 70200.00000 0 -19474493.207 -15985785.470 4256495.720 10 0 60284 71100.00000 0 -18927213.669 -15521945.548 7332374.253 10 0 60284 72000.00000 0 -18025047.144 -14919783.916 10266548.190 10 0 60284 72900.00000 0 -16767043.507 -14235065.000 13002305.875 10 0 60284 73800.00000 0 -15164942.857 -13524062.181 15486744.457 10 0 60284 74700.00000 0 -13242910.846 -12841064.023 17671779.562 10 0 60284 75600.00000 0 -11036769.386 -12235978.278 19515065.562 10 0 60284 76500.00000 0 -8592752.717 -11752133.169 20980809.788 10 0 60284 77400.00000 0 -5965838.232 -11424367.510 22040465.635 10 0 60284 78300.00000 0 -3217718.630 -11277489.526 22673291.559 10 0 60284 79200.00000 0 -414496.841 -11325169.422 22866764.992 10 0 60284 80100.00000 0 2375803.226 -11569313.145 22616842.541 10 0 60284 81000.00000 0 5085809.122 -11999945.218 21928060.254 10 0 60284 81900.00000 0 7651350.458 -12595607.619 20813470.389 10 0 60284 82800.00000 0 10013882.783 -13324260.240 19294413.962 10 0 60284 83700.00000 0 12122684.384 -14144647.402 17400131.313 10 0 60284 84600.00000 0 13936734.262 -15008074.981 15167216.070 10 0 60284 85500.00000 0 15426192.116 -15860524.851 12638921.178 10 0 60285 0.00000 0 16573417.296 -16645018.248 9864329.146 10 0 60285 900.00000 0 17373483.305 -17304128.752 6897400.096 10 0 60285 1800.00000 0 17834163.723 -17782536.819 3795919.600 10 0 60285 2700.00000 0 17975391.443 -18029517.643 620362.192 10 0 60285 3600.00000 0 17828212.246 -18001253.850 -2567302.595 10 0 60285 4500.00000 0 17433278.036 -17662873.002 -5704838.148 10 0 60285 5400.00000 0 16838944.482 -16990120.992 -8730976.442 10 0 60285 6300.00000 0 16099055.263 -15970598.117 -11586635.085 10 0 60285 7200.00000 0 15270508.870 -14604503.605 -14216089.735 10 0 60285 8100.00000 0 14410713.302 -12904855.771 -16568077.025 10 0 60285 9000.00000 0 13575038.599 -10897177.815 -18596804.938 10 0 60285 9900.00000 0 12814376.918 -8618662.462 -20262849.888 10 0 60285 10800.00000 0 12172914.605 -6116851.042 -21533922.694 10 0 60285 11700.00000 0 11686211.035 -3447883.264 -22385488.793 10 0 60285 12600.00000 0 11379665.142 -674391.985 -22801231.457 10 0 60285 13500.00000 0 11267433.475 2136868.164 -22773350.325 10 0 60285 14400.00000 0 11351843.843 4917558.746 -22302691.075 10 0 60285 15300.00000 0 11623327.348 7600356.189 -21398705.517 10 0 60285 16200.00000 0 12060869.497 10121503.471 -20079244.672 10 0 60285 17100.00000 0 12632959.287 12423209.753 -18370190.559 10 0 60285 18000.00000 0 13298994.387 14455799.879 -16304935.258 10 0 60285 18900.00000 0 14011081.766 16179526.536 -13923718.549 10 0 60285 19800.00000 0 14716156.996 17565972.323 -11272837.746 10 0 60285 20700.00000 0 15358332.545 18598986.105 -8403745.547 10 0 60285 21600.00000 0 15881376.340 19275117.495 -5372053.488 10 0 60285 22500.00000 0 16231216.850 19603533.982 -2236460.075 10 0 60285 23400.00000 0 16358370.148 19605426.440 942376.113 10 0 60285 24300.00000 0 16220187.980 19312929.658 4102997.349 10 0 60285 25200.00000 0 15782833.373 18767604.247 7184320.270 10 0 60285 26100.00000 0 15022901.692 18018543.975 10126800.428 10 0 60285 27000.00000 0 13928619.596 17120187.766 12873566.740 10 0 60285 27900.00000 0 12500571.635 16129927.359 15371505.299 10 0 60285 28800.00000 0 10751923.438 15105609.861 17572272.969 10 0 60285 29700.00000 0 8708130.871 14103038.606 19433222.464 10 0 60285 30600.00000 0 6406145.380 13173575.699 20918222.153 10 0 60285 31500.00000 0 3893146.206 12361945.652 21998355.442 10 0 60285 32400.00000 0 1224849.381 11704331.338 22652486.652 10 0 60285 33300.00000 0 -1536539.176 11226841.824 22867682.300 10 0 60285 34200.00000 0 -4324644.413 10944416.648 22639479.019 10 0 60285 35100.00000 0 -7071423.005 10860213.411 21971991.792 10 0 60285 36000.00000 0 -9709742.707 10965505.845 20877858.813 10 0 60285 36900.00000 0 -12175934.521 11240098.476 19378022.072 10 0 60285 37800.00000 0 -14412212.338 11653242.438 17501345.794 10 0 60285 38700.00000 0 -16368859.397 12165015.836 15284077.931 10 0 60285 39600.00000 0 -18006089.718 12728112.054 12769163.211 10 0 60285 40500.00000 0 -19295505.626 13289961.602 10005419.483 10 0 60285 41400.00000 0 -20221088.989 13795098.167 7046592.313 10 0 60285 42300.00000 0 -20779683.157 14187668.292 3950305.869 10 0 60285 43200.00000 0 -20980944.223 14413977.166 776930.862 10 0 60285 44100.00000 0 -20846762.959 14424960.723 -2411607.400 10 0 60285 45000.00000 0 -20410181.779 14178476.857 -5553055.950 10 0 60285 45900.00000 0 -19713853.086 13641316.017 -8586070.112 10 0 60285 46800.00000 0 -18808105.493 12790843.393 -11451432.127 10 0 60285 47700.00000 0 -17748701.488 11616200.904 -14093226.363 10 0 60285 48600.00000 0 -16594383.552 10119016.364 -16459946.209 10 0 60285 49500.00000 0 -15404314.649 8313588.732 -18505509.466 10 0 60285 50400.00000 0 -14235523.264 6226541.121 -20190161.394 10 0 60285 51300.00000 0 -13140462.390 3895956.277 -21481247.442 10 0 60285 52200.00000 0 -12164786.312 1370031.360 -22353840.857 10 0 60285 53100.00000 0 -11345439.013 -1294690.751 -22791213.782 10 0 60285 54000.00000 0 -10709134.010 -4035438.761 -22785143.952 10 0 60285 54900.00000 0 -10271288.173 -6785589.754 -22336052.679 10 0 60285 55800.00000 0 -10035452.375 -9477205.957 -21452973.210 10 0 60285 56700.00000 0 -9993260.529 -12043625.930 -20153351.892 10 0 60285 57600.00000 0 -10124896.611 -14422003.019 -18462687.700 10 0 60285 58500.00000 0 -10400057.616 -16555686.696 -16414018.572 10 0 60285 59400.00000 0 -10779369.779 -18396349.493 -14047265.704 10 0 60285 60300.00000 0 -11216196.824 -19905773.267 -11408449.335 10 0 60285 61200.00000 0 -11658763.032 -21057222.877 -8548791.721 10 0 60285 62100.00000 0 -12052501.235 -21836352.666 -5523724.796 10 0 60285 63000.00000 0 -12342526.934 -22241610.476 -2391821.545 10 0 60285 63900.00000 0 -12476134.882 -22284124.584 786328.691 10 0 60285 64800.00000 0 -12405213.861 -21987080.172 3949279.987 10 0 60285 65700.00000 0 -12088479.004 -21384612.682 7035903.241 10 0 60285 66600.00000 0 -11493428.703 -20520265.076 9986551.685 10 0 60285 67500.00000 0 -10597944.523 -19445073.632 12744197.296 10 0 60285 68400.00000 0 -9391467.186 -18215361.865 15255517.548 10 0 60285 69300.00000 0 -7875698.986 -16890333.928 17471912.868 10 0 60285 70200.00000 0 -6064802.228 -15529566.892 19350436.454 10 0 60285 71100.00000 0 -3985083.693 -14190505.327 20854619.580 10 0 60285 72000.00000 0 -1674176.037 -12926061.605 21955177.209 10 0 60285 72900.00000 0 820252.576 -11782421.116 22630580.695 10 0 60285 73800.00000 0 3442209.969 -10797143.433 22867486.400 10 0 60285 74700.00000 0 6129444.553 -9997638.658 22661011.331 10 0 60285 75600.00000 0 8815780.188 -9400083.038 22014849.355 10 0 60285 76500.00000 0 11433626.873 -9008820.180 20941224.143 10 0 60285 77400.00000 0 13916564.787 -8816274.295 19460677.831 10 0 60285 78300.00000 0 16201895.417 -8803380.716 17601697.328 10 0 60285 79200.00000 0 18233053.910 -8940517.270 15400183.336 10 0 60285 80100.00000 0 19961781.644 -9188898.752 12898770.427 10 0 60285 81000.00000 0 21349967.234 -9502376.796 10146009.739 10 0 60285 81900.00000 0 22371077.476 -9829569.570 7195429.110 10 0 60285 82800.00000 0 23011116.585 -10116230.984 4104488.556 10 0 60285 83700.00000 0 23269071.899 -10307758.073 933451.724 10 0 60285 84600.00000 0 23156826.115 -10351728.570 -2255803.706 10 0 60285 85500.00000 0 22698539.172 -10200358.814 -5401011.841 10 0 60286 0.00000 0 21929525.979 -9812775.181 -8440754.440 10 0 60286 900.00000 0 20894677.738 -9156999.817 -11315682.068 10 0 60286 1800.00000 0 19646496.005 -8211564.551 -13969690.393 10 0 60286 2700.00000 0 18242823.050 -6966681.944 -16351032.077 10 0 60286 3600.00000 0 16744367.387 -5424922.805 -18413336.890 10 0 60286 4500.00000 0 15212130.547 -3601370.574 -20116520.695 10 0 60286 5400.00000 0 13704845.382 -1523245.754 -21427564.936 10 0 60286 6300.00000 0 12276534.880 770983.518 -22321151.639 10 0 60286 7200.00000 0 10974294.692 3232966.842 -22780142.369 10 0 60286 8100.00000 0 9836392.145 5806254.805 -22795893.109 10 0 60286 9000.00000 0 8890760.409 8428424.814 -22368400.545 10 0 60286 9900.00000 0 8153949.133 11033460.126 -21506278.707 10 0 60286 10800.00000 0 7630573.131 13554282.682 -20226568.236 10 0 60286 11700.00000 0 7313279.491 15925334.518 -18554383.659 10 0 60286 12600.00000 0 7183231.667 18085101.038 -16522407.013 10 0 60286 13500.00000 0 7211087.531 19978472.449 -14170238.824 10 0 60286 14400.00000 0 7358427.983 21558846.822 -11543619.853 10 0 60286 15300.00000 0 7579574.300 22789889.287 -8693539.207 10 0 60286 16200.00000 0 7823716.559 23646876.365 -5675246.267 10 0 60286 17100.00000 0 8037263.061 24117571.715 -2547185.344 10 0 60286 18000.00000 0 8166311.814 24202598.897 630126.729 10 0 60286 18900.00000 0 8159140.545 23915297.461 3795259.121 10 0 60286 19800.00000 0 7968611.164 23281069.728 6887040.221 10 0 60286 20700.00000 0 7554388.380 22336246.421 9845724.005 10 0 60286 21600.00000 0 6884879.942 21126518.744 12614128.337 10 0 60286 22500.00000 0 5938817.410 19705002.080 15138724.615 10 0 60286 23400.00000 0 4706411.113 18130011.315 17370659.051 10 0 60286 24300.00000 0 3190030.201 16462639.422 19266687.199 10 0 60286 25200.00000 0 1404378.010 14764238.851 20790004.751 10 0 60286 26100.00000 0 -623846.593 13093909.294 21910959.363 10 0 60286 27000.00000 0 -2856790.331 11506095.196 22607630.156 10 0 60286 27900.00000 0 -5246757.075 10048392.109 22866263.640 10 0 60286 28800.00000 0 -7737938.407 8759652.781 22681557.040 10 0 60286 29700.00000 0 -10268494.344 7668471.873 22056782.453 10 0 60286 30600.00000 0 -12772900.543 6792113.016 21003747.871 10 0 60286 31500.00000 0 -15184466.614 6135923.952 19542593.897 10 0 60286 32400.00000 0 -17437922.320 5693265.482 17701427.960 10 0 60286 33300.00000 0 -19471964.658 5445958.561 15515800.916 10 0 60286 34200.00000 0 -21231659.472 5365232.113 13028034.225 10 0 60286 35100.00000 0 -22670596.391 5413132.676 10286409.116 10 0 60286 36000.00000 0 -23752705.490 5544336.983 7344232.369 10 0 60286 36900.00000 0 -24453657.685 5708290.833 4258796.496 10 0 60286 37800.00000 0 -24761788.205 5851582.925 1090254.808 10 0 60286 38700.00000 0 -24678502.673 5920451.610 -2099565.771 10 0 60286 39600.00000 0 -24218147.478 5863316.188 -5248389.364 10 0 60286 40500.00000 0 -23407349.392 5633222.834 -8294727.414 10 0 60286 41400.00000 0 -22283852.485 5190098.729 -11179100.204 10 0 60286 42300.00000 0 -20894902.285 4502716.168 -13845217.477 10 0 60286 43200.00000 0 -19295246.875 3550281.086 -16241093.092 10 0 60286 44100.00000 0 -17544841.059 2323576.954 -18320070.361 10 0 60286 45000.00000 0 -15706352.315 825614.458 -20041736.937 10 0 60286 45900.00000 0 -13842575.355 -928241.031 -21372711.008 10 0 60286 46800.00000 0 -12013865.349 -2910669.606 -22287283.691 10 0 60286 47700.00000 0 -10275698.400 -5083307.287 -22767905.848 10 0 60286 48600.00000 0 -8676461.563 -7398127.857 -22805511.159 10 0 60286 49500.00000 0 -7255564.174 -9799237.390 -22399670.762 10 0 60286 50400.00000 0 -6041947.973 -12225005.634 -21558578.211 10 0 60286 51300.00000 0 -5053056.085 -14610444.776 -20298866.880 10 0 60286 52200.00000 0 -4294301.213 -16889736.266 -18645265.059 10 0 60286 53100.00000 0 -3759052.301 -18998800.711 -16630096.908 10 0 60286 54000.00000 0 -3429137.172 -20877804.609 -14292640.164 10 0 60286 54900.00000 0 -3275837.228 -22473500.825 -11678353.901 10 0 60286 55800.00000 0 -3261330.102 -23741306.914 -8837991.848 10 0 60286 56700.00000 0 -3340517.823 -24647036.626 -5826618.595 10 0 60286 57600.00000 0 -3463162.480 -25168214.414 -2702547.566 10 0 60286 58500.00000 0 -3576238.989 -25294920.061 473779.093 10 0 60286 59400.00000 0 -3626406.002 -25030129.935 3640947.802 10 0 60286 60300.00000 0 -3562491.442 -24389541.973 6737746.580 10 0 60286 61200.00000 0 -3337888.763 -23400892.589 9704332.281 10 0 60286 62100.00000 0 -2912763.986 -22102794.347 12483370.773 10 0 60286 63000.00000 0 -2255981.298 -20543142.629 15021129.450 10 0 60286 63900.00000 0 -1346666.680 -18777156.992 17268502.296 10 0 60286 64800.00000 0 -175343.669 -16865137.609 19181949.054 10 0 60286 65700.00000 0 1255407.234 -14870028.721 20724331.475 10 0 60286 66600.00000 0 2930794.653 -12854888.887 21865631.278 10 0 60286 67500.00000 0 4824176.628 -10880371.684 22583536.425 10 0 60286 68400.00000 0 6897922.834 -9002320.261 22863884.318 10 0 60286 69300.00000 0 9104745.842 -7269574.863 22700952.798 10 0 60286 70200.00000 0 11389449.216 -5722084.013 22097592.245 10 0 60286 71100.00000 0 13691022.635 -4389398.044 21065194.687 10 0 60286 72000.00000 0 15944999.393 -3289608.304 19623498.580 10 0 60286 72900.00000 0 18085979.979 -2428777.217 17800230.925 10 0 60286 73800.00000 0 20050217.678 -1800884.192 15630591.462 10 0 60286 74700.00000 0 21778158.451 -1388290.829 13156586.933 10 0 60286 75600.00000 0 23216828.351 -1162706.906 10426226.703 10 0 60286 76500.00000 0 24321967.183 -1086617.085 7492594.198 10 0 60286 77400.00000 0 25059817.088 -1115108.260 4412811.803 10 0 60286 78300.00000 0 25408488.863 -1198019.722 1246919.579 10 0 60286 79200.00000 0 25358846.495 -1282323.870 -1943309.421 10 0 60286 80100.00000 0 24914871.005 -1314634.712 -5095592.570 10 0 60286 81000.00000 0 24093487.097 -1243735.373 -8148373.959 10 0 60286 81900.00000 0 22923859.477 -1023014.783 -11042047.242 10 0 60286 82800.00000 0 21446188.836 -612707.471 -13720138.847 10 0 60286 83700.00000 0 19710059.209 18160.932 -16130426.438 10 0 60286 84600.00000 0 17772407.825 890206.961 -18225969.148 10 0 60286 85500.00000 0 15695204.686 2012569.123 -19966028.373 10 0 60287 0.00000 0 13542941.421 3382282.266 -21316860.571 10 0 60287 900.00000 0 11380035.207 4984173.941 -22252367.489 10 0 60287 1800.00000 0 9268260.563 6791284.888 -22754590.110 10 0 60287 2700.00000 0 7264313.064 8765797.737 -22814040.437 10 0 60287 3600.00000 0 5417609.307 10860432.301 -22429864.304 10 0 60287 4500.00000 0 3768412.685 13020248.736 -21609834.641 10 0 60287 5400.00000 0 2346361.447 15184782.307 -20370177.003 10 0 60287 6300.00000 0 1169457.863 17290420.092 -18735232.465 10 0 60287 7200.00000 0 243557.744 19272920.325 -16736965.902 10 0 60287 8100.00000 0 -437621.596 21069969.688 -14414330.460 10 0 60287 9000.00000 0 -891978.410 22623672.698 -11812501.337 10 0 60287 9900.00000 0 -1148013.352 23882870.620 -8981994.332 10 0 60287 10800.00000 0 -1243370.959 24805194.690 -5977686.395 10 0 60287 11700.00000 0 -1222998.738 25358769.717 -2857756.974 10 0 60287 12600.00000 0 -1137002.311 25523498.670 317429.733 10 0 60287 13500.00000 0 -1038287.259 25291876.226 3486480.730 10 0 60287 14400.00000 0 -980086.721 24669298.626 6588146.996 10 0 60287 15300.00000 0 -1013478.268 23673857.731 9562491.489 10 0 60287 16200.00000 0 -1184993.734 22335628.280 12352031.141 10 0 60287 17100.00000 0 -1534421.744 20695477.812 14902832.167 10 0 60287 18000.00000 0 -2092894.724 18803448.123 17165538.871 10 0 60287 18900.00000 0 -2881340.563 16716774.412 19096317.440 10 0 60287 19800.00000 0 -3909364.255 14497622.903 20657697.591 10 0 60287 20700.00000 0 -5174607.470 12210639.229 21819296.668 10 0 60287 21600.00000 0 -6662614.587 9920407.555 22558412.644 10 0 60287 22500.00000 0 -8347213.172 7688924.301 22860474.554 10 0 60287 23400.00000 0 -10191395.828 5573190.003 22719341.128 10 0 60287 24300.00000 0 -12148669.722 3623018.416 22137440.800 10 0 60287 25200.00000 0 -14164820.553 1879153.523 21125748.853 10 0 60287 26100.00000 0 -16180020.194 371772.938 19703600.261 10 0 60287 27000.00000 0 -18131192.308 -880559.351 17898339.718 10 0 60287 27900.00000 0 -19954538.687 -1871446.263 15744813.448 10 0 60287 28800.00000 0 -21588121.367 -2606692.684 13284710.632 10 0 60287 29700.00000 0 -22974392.209 -3103819.853 10565765.576 10 0 60287 30600.00000 0 -24062562.852 -3391078.692 7640834.910 10 0 60287 31500.00000 0 -24810713.836 -3506003.404 4566867.317 10 0 60287 32400.00000 0 -25187552.094 -3493566.645 1403786.016 10 0 60287 33300.00000 0 -25173740.553 -3404015.287 -1786693.343 10 0 60287 34200.00000 0 -24762741.709 -3290480.027 -4942284.762 10 0 60287 35100.00000 0 -23961137.919 -3206462.313 -8001368.180 10 0 60287 36000.00000 0 -22788413.822 -3203307.707 -10904213.585 10 0 60287 36900.00000 0 -21276209.706 -3327775.504 -13594166.780 10 0 60287 37800.00000 0 -19467077.698 -3619810.217 -16018771.589 10 0 60287 38700.00000 0 -17412794.126 -4110611.584 -18130804.945 10 0 60287 39600.00000 0 -15172300.531 -4821086.470 -19889203.494 10 0 60287 40500.00000 0 -12809361.465 -5760749.197 -21259863.173 10 0 60287 41400.00000 0 -10390038.838 -6927117.132 -22216296.314 10 0 60287 42300.00000 0 -7980089.874 -8305626.813 -22740134.192 10 0 60287 43200.00000 0 -5642398.130 -9870073.475 -22821466.485 10 0 60287 44100.00000 0 -3434544.817 -11583554.522 -22459012.597 10 0 60287 45000.00000 0 -1406620.946 -13399876.263 -21660123.297 10 0 60287 45900.00000 0 400630.092 -15265363.891 -20440614.454 10 0 60287 46800.00000 0 1957264.402 -17120998.166 -18824437.790 10 0 60287 47700.00000 0 3245126.210 -18904788.932 -16843196.589 10 0 60287 48600.00000 0 4258335.164 -20554286.244 -14535516.945 10 0 60287 49500.00000 0 5003255.255 -22009124.566 -11946287.656 10 0 60287 50400.00000 0 5497949.753 -23213494.600 -9125784.035 10 0 60287 51300.00000 0 5771147.757 -24118440.646 -6128692.840 10 0 60287 52200.00000 0 5860767.913 -24683888.911 -3013057.029 10 0 60287 53100.00000 0 5812062.823 -24880323.533 160839.590 10 0 60287 54000.00000 0 5675463.012 -24690041.711 3331626.970 10 0 60287 54900.00000 0 5504211.351 -24107936.713 6438021.311 10 0 60287 55800.00000 0 5351887.147 -23141776.893 9419993.828 10 0 60287 56700.00000 0 5269923.353 -21811969.450 12219914.537 10 0 60287 57600.00000 0 5305220.510 -20150818.562 14783650.347 10 0 60287 58500.00000 0 5497956.882 -18201308.104 17061597.580 10 0 60287 59400.00000 0 5879686.237 -16015458.322 19009630.343 10 0 60287 60300.00000 0 6471803.038 -13652323.134 20589947.567 10 0 60287 61200.00000 0 7284439.870 -11175709.279 21771803.191 10 0 60287 62100.00000 0 8315844.484 -8651709.925 22532105.875 10 0 60287 63000.00000 0 9552264.356 -6146153.041 22855876.670 10 0 60287 63900.00000 0 10968345.967 -3722068.646 22736555.285 10 0 60287 64800.00000 0 12528034.922 -1437278.665 22176148.003 10 0 60287 65700.00000 0 14185942.268 657791.402 21185212.901 10 0 60287 66600.00000 0 15889122.722 2521988.296 19782680.750 10 0 60287 67500.00000 0 17579193.002 4124916.005 17995512.971 10 0 60287 68400.00000 0 19194703.484 5447967.353 15858201.056 10 0 60287 69300.00000 0 20673664.931 6484858.108 13412115.161 10 0 60287 70200.00000 0 21956124.579 7241640.199 10704712.797 10 0 60287 71100.00000 0 22986682.698 7736192.607 7788621.794 10 0 60287 72000.00000 0 23716842.385 7997210.818 4720614.856 10 0 60287 72900.00000 0 24107091.621 8062737.417 1560495.836 10 0 60287 73800.00000 0 24128627.500 7978296.554 -1630079.734 10 0 60287 74700.00000 0 23764647.511 7794712.461 -4788825.334 10 0 60287 75600.00000 0 23011151.251 7565706.328 -7854059.619 10 0 60287 76500.00000 0 21877217.105 7345375.722 -10765931.723 10 0 60287 77400.00000 0 20384741.243 7185665.996 -13467609.484 10 0 60287 78300.00000 0 18567649.683 7133943.452 -15906405.336 10 0 60287 79200.00000 0 16470617.039 7230775.423 -18034816.216 10 0 60287 80100.00000 0 14147346.859 7508013.120 -19811455.981 10 0 60287 81000.00000 0 11658487.122 7987259.590 -21201861.649 10 0 60287 81900.00000 0 9069269.714 8678788.069 -22179157.859 10 0 60287 82800.00000 0 6446974.035 9580956.281 -22724567.259 10 0 60287 83700.00000 0 3858321.574 10680140.682 -22827758.148 10 0 60287 84600.00000 0 1366910.476 11951192.355 -22487024.132 10 0 60287 85500.00000 0 -969203.346 13358394.065 -21709294.078 99